COSMOS 1390

Satellite information

Favourite Embed

Satellite Type and Status

PAYLOADIN ORBIT

Key statistics

Satellite COSMOS 1390 at a glance.

Uptime

15813

Days in orbit

Revolutions

≈ 12.5

Per day

Orbit

LEO

Low Earth Orbit

Inclination

74.0

Latest

Satellite identification and parameters

Extended collection of information and parameters for COSMOS 1390.

Object identification

Identified? True

Debris? False

Object name: COSMOS 1390

International designator: 1982-073C

Object number (NORAD): 13377

Object ID (CCSDS): 13377

Country: COMMONWEALTH OF INDEPENDENT STATES (CIS)

Current information (Y/N): Y

RCS size: MEDIUM

Orbital parameters

Period: 114.89 minutes

Inclination: 74.0116 deg

SMA: 7828.55 km

Apoapsis: 1474.7 km

Periapsis: 1426.13 km

RAAN: 125.8509 deg

Eccentricy: 0.0031021

Argument of periapsis: 335.5724 deg

Mean anomaly: 178.6451 deg

Mean motion: 12.53374284 rev/day

Mean motion (dot): 0.00000006 rev/day2

B* drag term: 0.0001411 1/REarth

Two-line elements (TLE)

Creation date: Nov. 4, 2025, 6:46 a.m.

Reference frame: TEME

Reference center: EARTH

Epoch: Nov. 3, 2025, 10:26 p.m. UTC

TLE line 0: 0 COSMOS 1390

TLE line 1: 1 13377U 82073C 25307.93486748 .00000006 00000-0 14110-3 0 9993

TLE line 2: 2 13377 74.0116 125.8509 0031021 335.5724 178.6451 12.53374284980691

Live tracking on map

Real-time ground track for satellite COSMOS 1390.

In-orbit conjunctions

A list of the most updated potential collisions computed for object COSMOS 1390.

Target Orbit TCA Probability of collision Miss distance Type
COSMOS 2491 DEB LEO 2025-10-15 08:11:06 0.0002463181 687.0 (m) DEBRIS

Associated space launch

Military communications satellites

COSMOS 1390 was lifted into orbit during the mission ‘Kosmos-3M | Strela-1M 241-248’, on board a Kosmos-3M space rocket.

The launch took place on July 21, 1982, 6:31 a.m. from 132/2.

For more information about the launch, click the button.

Launch to space Kosmos-3M | Strela-1M 241-248
Kosmos-3M | Strela-1M 241-248

Agency: N/A

Status: Launch Successful

Launch date: July 21, 1982, 6:31 a.m. UTC

Rocket: Kosmos-3M

Launch pad: 132/2

Location: Plesetsk Cosmodrome, Russian Federation

...

Latest news about this satellite

There are no fresh news available about this satellite. Check back as we update our databases every day.


Newsletter sign-up

Weekly statistics, charts and insights to help you stay on top of the space industry.